Wind_Speed
34 35 35 35 35 36 37 39 39 39 40 41 41 41 40 40 40 40 40 40 41 42 41 41 42 42 42 42 42 42 42 43 44 45 45 46 45 45 45 45 46 47 47 47
35 36 35 36 36 37 37 39 40 40 41 42 42 42 41 41 41 41 41 41 42 43 42 43 44 44 44 44 44 44 44 45 45 46 47 47 48 48 48 48 48 48 48 48
36 36 36 37 37 38 39 40 40 41 42 43 44 43 42 41 42 42 42 42 43 43 43 43 44 45 45 45 46 46 46 46 47 47 48 49 49 50 50 50 50 51 50 50
37 36 37 37 38 39 40 40 41 42 43 44 44 46 42 42 42 42 43 43 43 44 44 44 45 45 46 46 47 47 47 48 48 48 49 50 51 51 52 52 52 52 52 53
37 37 38 39 39 40 40 41 42 43 44 46 45 47 45 43 43 43 43 43 43 44 44 45 46 46 47 47 48 48 49 49 49 50 50 51 52 52 53 53 53 54 55 55
38 38 39 40 40 41 42 42 43 44 45 47 44 46 47 44 43 43 43 43 43 44 45 45 46 47 48 48 49 50 50 50 50 50 51 52 53 53 54 55 55 56 56 57
39 39 40 40 40 41 41 41 43 45 46 47 44 46 46 44 43 43 42 43 43 44 45 46 46 47 48 49 50 51 51 52 51 52 53 53 54 54 55 56 56 57 58 59
40 40 39 39 38 39 39 40 41 43 45 45 44 45 44 42 43 43 44 44 45 45 46 46 47 48 48 50 50 51 52 53 53 53 54 54 55 56 56 57 57 58 59 59
39 39 39 38 38 38 38 38 39 42 44 44 44 44 42 41 42 43 44 44 45 45 46 46 46 47 48 49 49 50 51 52 53 54 55 55 56 57 57 58 59 59 60 60
38 39 38 38 37 37 37 38 38 39 41 44 45 45 44 42 42 43 45 45 45 45 45 45 46 46 47 48 48 49 50 51 52 54 55 56 56 57 58 59 59 59 59 60
38 39 38 37 36 36 36 37 38 40 42 42 43 42 41 42 42 43 43 43 43 44 45 45 45 46 47 48 49 50 51 52 53 54 55 56 56 57 58 58 59 59 58 58
38 39 39 37 36 37 38 37 37 39 40 41 43 42 40 41 41 42 43 43 44 44 45 45 46 46 47 48 49 50 51 52 53 53 54 55 55 56 56 56 56 56 56 56
37 38 39 38 36 36 37 36 37 38 40 41 41 40 40 41 42 44 44 44 45 45 46 46 46 46 47 48 49 50 51 52 52 53 53 54 53 53 54 54 55 55 55 55
35 36 37 37 36 36 36 35 35 37 39 39 38 38 38 40 42 43 44 45 45 45 46 46 46 45 46 47 48 48 49 50 51 51 51 51 51 51 51 51 52 53 54 54
34 35 35 36 36 37 37 36 36 38 38 39 38 38 38 39 40 42 42 42 43 44 44 44 45 45 45 46 47 47 48 48 49 49 49 49 49 49 49 49 50 50 51 52
34 35 35 35 35 37 38 37 37 37 38 39 40 40 39 40 40 41 41 42 42 42 42 42 43 43 44 44 45 46 46 46 46 46 46 46 47 47 48 48 48 47 48 49
35 35 36 36 36 36 37 35 36 37 37 38 38 38 38 39 39 40 41 42 42 42 41 41 42 42 42 43 43 43 43 43 43 43 43 43 44 44 45 45 45 45 46 47
34 35 36 36 36 37 35 35 35 36 36 37 37 36 37 38 39 40 41 41 40 40 40 40 41 41 42 42 41 41 41 41 41 40 41 41 41 41 41 42 42 43 43 45
32 33 35 35 36 37 35 34 34 35 35 35 35 36 36 37 38 38 38 38 38 38 39 39 39 40 40 39 39 39 39 39 38 38 38 39 39 40 40 40 40 41 42 43
31 31 33 33 35 35 34 33 32 32 33 32 33 34 35 36 36 36 37 38 38 38 38 38 38 38 38 38 38 38 38 37 37 37 37 37 38 38 38 38 38 39 40 40
30 30 30 31 31 32 32 31 31 32 32 32 33 34 35 36 37 36 36 37 38 38 38 37 37 38 38 37 37 37 36 36 37 37 37 37 37 37 37 38 38 39 39 39
29 29 30 30 30 30 30 30 31 32 32 33 33 34 35 35 35 35 35 36 36 37 37 37 37 37 37 36 36 36 35 35 35 36 37 37 37 37 37 37 38 38 39 39
28 28 28 29 29 29 30 31 32 32 33 33 34 34 34 34 34 34 34 34 35 36 37 37 37 37 37 36 36 35 35 35 36 36 37 37 37 37 37 37 37 37 38 38
27 27 28 29 29 30 31 32 33 33 33 33 34 34 34 33 33 33 33 33 35 36 36 36 36 36 36 35 35 35 35 36 36 36 37 37 37 37 37 37 37 37 37 37
26 27 28 29 29 30 31 32 33 33 33 33 34 34 33 33 32 32 33 33 34 34 34 35 35 35 35 35 35 35 36 36 36 36 36 37 36 36 36 36 36 37 37 37
25 27 28 28 28 29 29 30 31 31 31 32 32 33 33 33 33 33 33 34 34 33 33 33 34 34 34 35 35 36 36 36 36 36 37 37 36 36 36 36 36 36 36 36
Wind_Direction
272 272 271 271 271 271 271 271 271 271 270 270 270 269 268 268 268 267 267 267 266 266 266 266 266 265 265 265 265 264 264 264 264 264 264 264 264 264 265 265 265 265 264 264
273 273 273 272 272 272 271 272 272 271 271 271 271 270 269 269 269 268 268 268 267 267 267 267 267 266 266 266 265 265 265 265 264 264 264 264 264 264 265 265 266 265 265 265
276 276 274 272 272 272 272 273 273 273 272 271 272 271 269 269 269 269 268 268 268 268 268 268 267 267 267 267 266 266 265 265 265 265 265 265 265 265 265 265 266 265 265 265
275 275 274 274 273 273 273 273 274 273 272 272 272 272 269 271 271 270 269 269 269 269 269 269 268 268 268 268 267 266 266 266 266 265 265 265 265 265 265 265 266 266 266 266
277 276 275 275 275 274 274 274 274 273 272 272 271 273 271 270 271 271 270 270 270 269 269 269 268 268 268 268 267 267 266 266 266 266 266 266 266 266 266 267 267 267 267 266
279 278 278 277 276 275 275 275 273 272 272 272 272 272 272 271 272 272 271 270 271 271 270 269 269 269 269 268 267 267 266 267 267 267 267 267 267 267 267 267 267 268 268 267
280 279 279 279 278 276 275 275 274 274 273 273 273 272 273 274 274 274 273 273 272 272 272 271 270 269 269 268 268 267 267 267 267 267 268 268 268 268 267 267 268 268 268 268
282 282 281 280 279 278 276 274 274 274 275 275 274 274 276 276 276 276 276 275 275 275 274 273 272 271 270 269 269 269 268 268 268 268 268 269 268 268 268 267 268 268 269 269
282 282 281 280 279 278 277 275 275 274 275 275 274 275 276 277 277 277 277 276 275 275 275 274 273 272 272 271 271 271 271 270 269 269 269 269 268 268 268 268 268 269 269 269
282 282 281 280 279 278 278 277 276 274 275 275 276 276 277 278 278 278 277 277 276 275 275 274 274 274 273 273 273 273 273 272 271 271 271 270 270 270 270 269 269 269 269 270
281 282 282 280 279 278 277 277 275 274 274 275 277 278 279 280 280 279 278 277 276 276 276 275 275 275 275 275 275 275 274 274 274 274 273 272 272 271 271 270 270 269 269 269
281 281 280 280 280 278 277 277 276 274 274 275 276 277 278 278 278 277 278 277 277 277 277 276 276 277 277 277 277 276 276 276 276 276 275 274 273 272 271 270 269 269 269 268
282 281 281 281 280 279 279 278 277 275 275 275 276 278 279 279 277 277 277 278 278 278 277 278 278 278 278 278 278 278 278 278 278 277 277 275 273 272 271 270 269 269 268 267
281 281 281 282 282 282 280 280 279 277 276 276 277 278 278 278 278 277 277 278 278 278 279 279 279 279 279 279 279 279 279 279 279 278 277 275 273 272 271 271 270 269 267 267
282 281 281 281 281 281 280 279 279 277 278 278 278 278 279 278 278 278 279 279 279 280 280 280 280 280 281 280 280 280 280 280 279 278 277 275 274 272 272 272 272 269 267 266
283 282 282 283 282 281 280 280 279 278 279 279 278 278 279 278 278 279 280 280 281 281 281 281 282 281 282 282 282 282 281 280 279 278 276 275 275 274 273 273 271 270 268 267
285 285 285 285 284 281 281 283 282 280 279 280 280 280 279 277 278 279 280 281 282 282 282 282 283 283 284 284 284 283 282 281 280 279 277 276 276 276 275 274 272 270 269 268
288 287 286 286 285 283 286 284 283 282 280 280 281 282 280 278 279 280 281 282 283 283 284 284 284 285 285 285 285 284 283 283 282 281 279 278 278 278 277 275 273 271 271 270
290 289 288 288 287 286 287 288 287 285 282 282 283 282 281 280 280 282 282 282 283 284 284 285 285 285 286 286 285 284 283 283 283 282 281 279 279 280 279 277 275 273 273 272
292 291 290 289 288 289 291 290 289 287 285 284 283 283 283 283 284 284 284 283 283 284 284 285 285 285 286 286 286 285 284 283 283 282 282 282 281 281 280 278 276 275 274 274
294 293 292 291 290 291 292 291 289 287 288 287 286 286 286 287 287 286 285 284 284 284 284 285 285 286 287 287 287 285 285 284 283 283 284 284 284 283 281 279 278 277 277 275
295 295 294 293 292 293 294 291 289 288 288 288 289 288 288 289 288 287 286 285 285 285 284 285 285 287 287 287 287 286 286 285 285 286 286 287 286 285 283 282 280 279 278 277
296 295 295 293 293 292 291 291 290 290 290 290 290 290 290 289 289 288 286 287 286 286 285 284 285 287 287 287 287 286 286 286 287 288 288 288 287 286 284 284 282 281 279 278
296 295 294 293 293 291 290 289 290 291 291 291 291 291 291 290 289 288 287 288 288 288 286 286 286 286 286 286 287 286 286 287 287 288 288 288 287 286 285 284 283 282 281 279
299 298 297 296 295 293 291 291 291 291 291 292 293 292 291 291 291 289 289 288 289 289 288 287 286 287 287 286 287 287 286 287 288 289 289 288 287 286 285 284 284 283 282 281
300 299 299 300 300 298 296 295 294 294 293 294 294 293 293 292 292 292 290 289 289 290 290 289 289 289 288 288 288 288 288 288 289 289 289 289 287 286 285 285 284 283 282 282
Height
5698 5698 5698 5698 5697 5697 5696 5695 5695 5696 5695 5694 5695 5696 5697 5698 5699 5700 5700 5701 5701 5702 5703 5703 5704 5704 5705 5706 5707 5707 5708 5709 5710 5711 5712 5713 5714 5714 5715 5716 5717 5717 5718 5719
5690 5690 5690 5688 5687 5687 5686 5685 5685 5686 5685 5684 5684 5685 5687 5687 5688 5689 5690 5690 5691 5691 5692 5693 5693 5693 5694 5695 5696 5697 5697 5698 5699 5699 5700 5701 5702 5703 5704 5704 5705 5705 5706 5707
5680 5682 5680 5679 5678 5677 5676 5676 5676 5675 5674 5673 5673 5674 5677 5677 5677 5679 5679 5679 5680 5680 5681 5681 5682 5682 5683 5683 5684 5685 5685 5686 5687 5687 5688 5688 5689 5690 5691 5692 5692 5693 5693 5694
5670 5671 5670 5669 5668 5667 5666 5666 5665 5664 5663 5662 5663 5661 5667 5667 5667 5667 5668 5668 5668 5669 5669 5669 5670 5670 5671 5671 5672 5672 5673 5674 5674 5674 5675 5676 5676 5677 5678 5679 5679 5680 5680 5681
5661 5660 5659 5659 5658 5656 5655 5655 5654 5652 5651 5650 5652 5650 5654 5655 5655 5656 5656 5657 5657 5657 5657 5657 5657 5658 5658 5659 5659 5659 5660 5660 5661 5661 5661 5662 5663 5664 5664 5665 5665 5666 5666 5666
5651 5650 5648 5648 5647 5646 5644 5644 5642 5640 5639 5639 5643 5640 5640 5644 5645 5645 5645 5645 5644 5644 5644 5644 5644 5645 5645 5645 5646 5646 5646 5647 5647 5647 5647 5648 5648 5649 5650 5650 5651 5651 5651 5651
5640 5640 5638 5637 5636 5635 5634 5633 5631 5628 5627 5628 5631 5628 5630 5633 5633 5633 5633 5632 5632 5632 5632 5631 5631 5631 5632 5632 5632 5632 5632 5632 5632 5633 5633 5633 5633 5634 5634 5635 5635 5635 5636 5636
5629 5629 5629 5626 5625 5624 5623 5622 5621 5619 5617 5617 5618 5617 5621 5622 5622 5621 5621 5620 5620 5619 5619 5619 5618 5618 5618 5617 5617 5617 5617 5617 5618 5617 5617 5618 5618 5618 5618 5619 5619 5619 5619 5619
5618 5618 5618 5616 5615 5614 5613 5612 5611 5609 5606 5606 5607 5608 5610 5611 5610 5609 5609 5608 5607 5607 5606 5606 5605 5605 5604 5604 5603 5602 5602 5602 5602 5602 5602 5602 5602 5602 5602 5602 5602 5602 5602 5602
5607 5606 5607 5606 5605 5604 5603 5601 5600 5598 5596 5595 5596 5597 5599 5599 5599 5598 5596 5595 5595 5594 5593 5593 5592 5591 5590 5590 5589 5588 5587 5587 5586 5586 5586 5585 5585 5585 5585 5585 5585 5585 5584 5584
5598 5596 5596 5596 5595 5594 5593 5592 5590 5588 5587 5586 5585 5589 5589 5588 5587 5586 5584 5583 5582 5581 5580 5580 5579 5578 5577 5576 5575 5574 5573 5572 5571 5570 5569 5568 5568 5568 5567 5567 5567 5567 5566 5566
5588 5586 5585 5586 5585 5583 5582 5582 5580 5579 5577 5575 5574 5579 5578 5577 5575 5574 5573 5572 5571 5569 5568 5567 5566 5565 5564 5562 5561 5560 5558 5557 5556 5554 5553 5552 5551 5550 5550 5549 5549 5549 5549 5549
5578 5576 5575 5575 5576 5574 5572 5571 5570 5568 5566 5565 5564 5569 5567 5565 5563 5562 5561 5560 5559 5558 5556 5555 5554 5552 5550 5549 5547 5545 5543 5542 5540 5538 5537 5535 5534 5533 5532 5532 5532 5532 5532 5532
5568 5567 5566 5566 5564 5562 5561 5561 5560 5558 5556 5555 5555 5557 5556 5554 5552 5550 5549 5548 5547 5546 5544 5543 5541 5539 5537 5535 5533 5531 5529 5527 5525 5523 5521 5519 5518 5517 5516 5516 5515 5515 5515 5515
5558 5557 5556 5555 5554 5552 5551 5551 5549 5548 5546 5545 5546 5545 5545 5542 5540 5538 5537 5536 5535 5534 5532 5530 5528 5526 5524 5521 5519 5517 5514 5512 5509 5507 5505 5504 5503 5501 5500 5500 5499 5499 5499 5499
5549 5547 5546 5546 5544 5542 5541 5540 5540 5538 5537 5535 5534 5534 5534 5531 5529 5527 5526 5524 5523 5521 5520 5517 5515 5513 5511 5508 5505 5503 5500 5497 5495 5492 5490 5489 5487 5486 5485 5484 5484 5483 5483 5483
5540 5538 5536 5535 5534 5531 5530 5532 5530 5528 5527 5525 5523 5524 5522 5520 5518 5516 5514 5513 5511 5509 5507 5505 5503 5500 5498 5495 5492 5489 5486 5483 5481 5478 5476 5474 5473 5472 5471 5470 5469 5469 5469 5469
5531 5529 5526 5524 5524 5521 5525 5522 5520 5518 5517 5515 5513 5512 5510 5509 5507 5505 5503 5501 5499 5497 5495 5493 5491 5489 5486 5482 5479 5476 5473 5470 5468 5466 5463 5461 5460 5458 5457 5456 5456 5456 5455 5455
5522 5520 5517 5515 5512 5511 5514 5512 5510 5507 5507 5505 5503 5502 5500 5498 5496 5495 5492 5490 5488 5486 5484 5482 5480 5477 5473 5470 5467 5464 5461 5458 5456 5454 5452 5450 5448 5446 5445 5444 5443 5442 5442 5441
5514 5511 5509 5506 5503 5502 5505 5503 5500 5498 5497 5496 5493 5491 5490 5488 5486 5486 5482 5480 5477 5475 5473 5471 5468 5465 5462 5459 5456 5452 5450 5447 5445 5443 5440 5438 5437 5435 5433 5432 5431 5430 5429 5429
5506 5503 5501 5498 5495 5494 5495 5493 5491 5491 5490 5487 5484 5481 5479 5477 5475 5474 5471 5469 5466 5464 5462 5460 5457 5454 5451 5448 5445 5442 5439 5436 5434 5432 5430 5428 5426 5424 5422 5421 5419 5418 5417 5416
5498 5496 5493 5490 5488 5490 5487 5485 5483 5481 5479 5477 5474 5472 5470 5467 5464 5462 5460 5458 5456 5454 5451 5449 5446 5443 5440 5437 5434 5431 5429 5426 5424 5422 5419 5417 5415 5412 5411 5409 5407 5406 5405 5404
5491 5489 5486 5485 5484 5481 5478 5476 5474 5472 5470 5468 5465 5463 5460 5458 5455 5453 5450 5448 5446 5443 5441 5438 5436 5433 5430 5426 5424 5421 5419 5416 5414 5411 5409 5406 5403 5401 5399 5397 5396 5394 5393 5391
5485 5482 5479 5477 5476 5474 5471 5469 5466 5464 5461 5459 5456 5454 5451 5448 5445 5443 5440 5438 5436 5433 5430 5428 5425 5423 5420 5417 5414 5411 5408 5406 5403 5401 5398 5395 5392 5390 5388 5386 5384 5382 5381 5379
5478 5475 5472 5470 5469 5466 5463 5460 5458 5455 5452 5450 5447 5444 5442 5439 5436 5433 5431 5428 5426 5423 5420 5417 5415 5412 5410 5407 5404 5400 5398 5395 5392 5390 5387 5384 5382 5379 5377 5375 5373 5371 5369 5367
5472 5469 5466 5464 5461 5458 5455 5452 5449 5447 5444 5441 5438 5435 5432 5429 5427 5424 5421 5418 5415 5413 5410 5407 5405 5402 5399 5396 5393 5390 5387 5384 5382 5379 5376 5373 5371 5368 5366 5364 5362 5359 5357 5355